WAT4970 ENBR-ENGM

Flight info

Callsign WAT4970
Flight time N/A
Altitude 31000
Route GOKAB DCT ULVAN DCT ADOPI
Aircraft E75L/M-SDE3GILORVW/S

Departure

Time 2026-05-01 12:44
Airport Bergen Airport, Flesland (ENBR)

Arrival

Time N/A
Airport Oslo-Gardermoen International Airport (ENGM)
Time Latitude Longitude Altitude Speed Heading
2026-05-01 12:22 60.28620 5.22933 171 ft 0 kts 81°
2026-05-01 12:35 60.28619 5.22928 171 ft 3 kts 81°
2026-05-01 12:35 60.28615 5.22876 171 ft 4 kts 81°
2026-05-01 12:35 60.28613 5.22862 171 ft 0 kts 80°
2026-05-01 12:39 60.28614 5.22864 171 ft 1 kts 73°
2026-05-01 12:39 60.28623 5.22874 171 ft 2 kts
2026-05-01 12:40 60.28632 5.22855 171 ft 3 kts 297°
2026-05-01 12:40 60.28656 5.22776 169 ft 10 kts 308°
2026-05-01 12:40 60.28670 5.22617 164 ft 15 kts 259°
2026-05-01 12:40 60.28684 5.22420 163 ft 15 kts 299°
2026-05-01 12:41 60.28786 5.22328 160 ft 18 kts 350°
2026-05-01 12:41 60.28921 5.22279 160 ft 21 kts 350°
2026-05-01 12:41 60.29073 5.22227 160 ft 23 kts 349°
2026-05-01 12:41 60.29238 5.22174 161 ft 25 kts 352°
2026-05-01 12:42 60.29422 5.22110 155 ft 29 kts 349°
2026-05-01 12:42 60.29624 5.22041 146 ft 22 kts 350°
2026-05-01 12:42 60.29784 5.21989 146 ft 24 kts 350°
2026-05-01 12:42 60.29947 5.21936 153 ft 23 kts 351°
2026-05-01 12:43 60.30044 5.21815 157 ft 13 kts 258°
2026-05-01 12:43 60.30036 5.21656 159 ft 7 kts 265°
2026-05-01 12:43 60.30016 5.21589 160 ft 6 kts 184°
2026-05-01 12:43 60.29773 5.21668 152 ft 73 kts 170°
2026-05-01 12:44 60.29038 5.21921 177 ft 135 kts 172°
2026-05-01 12:44 60.28056 5.22179 807 ft 143 kts 174°
2026-05-01 12:44 60.25983 5.22746 2189 ft 171 kts 174°
2026-05-01 12:45 60.23423 5.23746 3529 ft 203 kts 171°
2026-05-01 12:45 60.21972 5.24404 4023 ft 224 kts 172°
2026-05-01 12:45 60.20380 5.25037 4619 ft 238 kts 174°
2026-05-01 12:46 60.18729 5.25515 5426 ft 241 kts 177°
2026-05-01 12:46 60.17063 5.26173 6116 ft 254 kts 163°
2026-05-01 12:46 60.15502 5.28032 6799 ft 266 kts 153°
2026-05-01 12:46 60.14209 5.30800 7439 ft 286 kts 126°
2026-05-01 12:47 60.13602 5.34662 8079 ft 302 kts 104°
2026-05-01 12:47 60.13574 5.38957 8669 ft 312 kts 92°
2026-05-01 12:47 60.13775 5.43330 9234 ft 322 kts 78°
2026-05-01 12:47 60.14697 5.47485 9851 ft 329 kts 60°
2026-05-01 12:48 60.15942 5.51378 10399 ft 336 kts 57°
2026-05-01 12:48 60.17253 5.55446 10523 ft 357 kts 58°
2026-05-01 12:48 60.18609 5.59793 10637 ft 376 kts 59°
2026-05-01 12:48 60.19990 5.64336 11003 ft 385 kts 59°
2026-05-01 12:49 60.21353 5.68896 11572 ft 386 kts 59°
2026-05-01 12:49 60.22730 5.73545 12090 ft 390 kts 59°
2026-05-01 12:49 60.24126 5.78247 12690 ft 391 kts 59°
2026-05-01 12:49 60.25531 5.82982 13340 ft 397 kts 59°
2026-05-01 12:50 60.26954 5.87786 14251 ft 402 kts 59°
2026-05-01 12:50 60.28391 5.92656 15171 ft 405 kts 59°
2026-05-01 12:50 60.29837 5.97552 16109 ft 408 kts 59°
2026-05-01 12:50 60.31282 6.02428 16914 ft 413 kts 58°
2026-05-01 12:51 60.32763 6.07422 17760 ft 418 kts 58°
2026-05-01 12:51 60.34275 6.12504 18493 ft 426 kts 58°
2026-05-01 12:51 60.37353 6.22854 19907 ft 436 kts 58°
2026-05-01 12:52 60.38925 6.28137 20543 ft 441 kts 58°
2026-05-01 12:52 60.42129 6.38893 21771 ft 451 kts 58°
2026-05-01 12:52 60.43675 6.44442 22309 ft 456 kts 66°
2026-05-01 12:53 60.44264 6.56937 23475 ft 453 kts 102°
2026-05-01 12:53 60.43809 6.63266 24006 ft 457 kts 103°
2026-05-01 12:53 60.43412 6.69682 24552 ft 461 kts 101°
2026-05-01 12:54 60.43083 6.76165 25130 ft 464 kts 99°
2026-05-01 12:54 60.42509 6.88968 26851 ft 451 kts 99°
2026-05-01 12:54 60.42218 6.95211 27408 ft 452 kts 99°
2026-05-01 12:55 60.41592 7.08000 28352 ft 458 kts 99°
2026-05-01 12:55 60.41279 7.14389 28994 ft 456 kts 99°
2026-05-01 12:55 60.41061 7.20811 29508 ft 458 kts 97°
2026-05-01 12:56 60.40880 7.27230 30102 ft 456 kts 97°
2026-05-01 12:56 60.40686 7.33619 30695 ft 454 kts 97°
2026-05-01 12:56 60.40483 7.39965 31266 ft 451 kts 97°
2026-05-01 12:56 60.40274 7.46274 31780 ft 449 kts 97°
2026-05-01 12:57 60.40060 7.52575 32247 ft 448 kts 97°
2026-05-01 12:57 60.39627 7.65016 33192 ft 445 kts 97°
2026-05-01 12:57 60.39404 7.71253 33645 ft 444 kts 97°
2026-05-01 12:58 60.39179 7.77476 34098 ft 443 kts 97°
2026-05-01 12:58 60.38952 7.83669 34491 ft 442 kts 98°
2026-05-01 12:58 60.38722 7.89878 34827 ft 442 kts 97°
2026-05-01 12:59 60.38318 8.02237 35358 ft 444 kts 90°
2026-05-01 12:59 60.38722 8.20811 35300 ft 442 kts 90°
2026-05-01 13:00 60.38955 8.39451 35232 ft 442 kts 91°
2026-05-01 13:01 60.39175 8.58097 35228 ft 442 kts 91°
2026-05-01 13:02 60.39381 8.76638 35222 ft 442 kts 91°